{"data":{"norad_id":66893,"epoch":"2026-05-25T01:46:45.022080Z","epoch_age_seconds":68623,"freshness":"FRESH","line1":"1 66893U 25283R   26145.07413220  .00020910  00000+0  71540-3 0  9990","line2":"2 66893  53.1609  29.7436 0001217  93.8519 266.2621 15.30233647 27531","mean_motion":15.30233647,"eccentricity":0.0001217,"inclination_deg":53.1609,"raan_deg":29.7436,"arg_perigee_deg":93.8519,"mean_anomaly_deg":266.2621,"bstar":0.0007154,"rev_number":2753,"period_min":94.103276504415,"perigee_km":474.28056666247,"apogee_km":475.9486481037,"semimajor_km":6853.2516073831,"source":"CELESTRAK","updated_at":"2026-05-25T13:38:21.381250Z"}}